Regional Weather Roundup
Issued by NWS Wakefield, VA

Home | Current Version | Previous Version | Text Only | Print | Product List | Glossary On
Versions: 1 2 3 4 5 6 7 8 9 10 11 12 13 14 15 16 17 18 19 20 21 22 23 24 25 26 27 28
000
ASUS41 KAKQ 260115
RWRAKQ

REGIONAL WEATHER ROUNDUP
NATIONAL WEATHER SERVICE WAKEFIELD VA
900 PM EDT TUE APR 25 2017

Note: "fair" indicates few or no clouds below 12,000 feet with no
significant weather and/or obstructions to visibility. * = Denotes
station may not report precipitation (e.g., rain,snow,etc.),
thunder or fog.

VAZ042-051-052>054-056-260200-
NORTHERN VIRGINIA

CITY           SKY/WX    TMP DP  RH WIND       PRES   REMARKS
WASH NATIONAL  CLOUDY    59  57  93 NE12      29.73S
DULLES         CLOUDY    58  55  90 N8        29.75R
FORT BELVOIR   CLOUDY    59  56  90 CALM      29.73R
QUANTICO       CLOUDY    60  59  96 NE7       29.73S
FREDERICKSBRG* CLOUDY    59  59 100 N9        29.72R
STAFFORD*      CLOUDY    58  58 100 N8        29.77R
WARRENTON      CLOUDY    59  56  89 N7        29.74S
CULPEPER*      CLOUDY    59  58  99 N8        29.75S FOG
MANASSAS*        N/A     59  56  89 N8        29.75R
LEESBURG*      CLOUDY    59  59 100 N5        29.77R FOG
WINCHESTER     DRIZZLE   54  54 100 N6        29.78S
FRONT ROYAL*   CLOUDY    54  54 100 CALM      29.77S
LURAY*         CLOUDY    55  54  94 NE3       29.77S
$$

VAZ048-049-060>072-079>083-260200-
CENTRAL AND SOUTH CENTRAL VIRGINIA

CITY           SKY/WX    TMP DP  RH WIND       PRES   REMARKS
RICHMOND       DRIZZLE   61  61 100 N12       29.69R FOG
CHESTERFIELD*  CLOUDY    63  45  51 N8        29.71R
PETERSBURG*    LGT RAIN  63  59  89 N8        29.69R
HANOVER        CLOUDY    60  58  92 VRB6      29.71S FOG
TAPPAHANNOCK*  LGT RAIN  61  61 100 N7        29.68S
QUINTON*       CLOUDY    61  61 100 NW6       29.67R FOG
CHARLOTTSVILLE CLOUDY    60  56  86 N3        29.74S
GORDONSVILLE*  CLOUDY    58  57  99 N6        29.73R
ORANGE*        CLOUDY    55  55 100 CALM      29.74R FOG
LOUISA*        CLOUDY    61  61 100 N7        29.71S FOG
BUMPASS*       CLOUDY    58  58 100 NW8       29.72R
FARMVILLE*     CLOUDY    60  60  99 N9        29.71S
CREWE*         CLOUDY    59  59 100 NW6       29.71R
FORT PICKETT*  CLOUDY   N/A N/A N/A NW12      29.70R
CHASE CITY*    CLOUDY    60  58  94 NW6       29.71S
CLARKSVILLE*   CLOUDY    61  61 100 NW3       29.70R
SOUTH HILL*    CLOUDY    61  60  97 N8        29.74S
LAWRENCEVILLE* CLOUDY    62  61  96 NW9       29.69R
EMPORIA*       CLOUDY    63  63 100 W8        29.68R
$$

VAZ088>098-260200-
SOUTHEAST VIRGINIA

CITY           SKY/WX    TMP DP  RH WIND       PRES   REMARKS
NORFOLK        LGT RAIN  65  61  87 N6        29.64R
VIRGINIA BEACH CLOUDY    62  59  90 NW3       29.63R
NORFOLK NAVAL  CLOUDY    65  62  90 N8        29.65S
WEST POINT*    CLOUDY    63  62  96 N6        29.67S
SALUDA*        CLOUDY    62  62 100 NW9       29.64S
NEWPORT NEWS   RAIN      63  62  97 N7        29.65R FOG
LANGLEY AFB    LGT RAIN  64  64 100 NW5       29.64S FOG
FORT EUSTIS    RAIN      64  63  94 CALM      29.63R FOG
WILLIAMSBURG*  CLOUDY    64  64 100 CALM      29.67R
HR EXEC AP*    CLOUDY    64  59  82 CALM      29.63R
FRANKLIN*      RAIN      64  62  93 CALM      29.66R
US460-WAKEFLD  CLOUDY    65  64  97 VRB5      29.66R
$$

VAZ020-022-025-037-045-260200-
WEST CENTRAL AND SOUTHWEST VIRGINIA

CITY           SKY/WX    TMP DP  RH WIND       PRES   REMARKS
STAUNTON*      CLOUDY    54  52  92 N7        29.79F
WAYNESBORO*    CLOUDY    53  53 100 N9        29.77F
HOT SPRINGS VA CLOUDY    41  39  93 NE7       29.81S
LYNCHBURG      PTCLDY    56  54  93 CALM      29.75S
DANVILLE       CLOUDY    58  58 100 NW3       29.74R
SOUTH BOSTON*  CLOUDY    60  58  95 N5        29.72R
MARTINSVILLE   CLOUDY    58  54  86 CALM      29.78R
ROANOKE        CLOUDY    58  54  86 NE7       29.78R
BLACKSBURG     CLOUDY    57  54  88 CALM      29.81R
DUBLIN*        CLOUDY    59  53  80 CALM      29.79S
MARION*        CLOUDY    60  59  96 CALM      29.82R
HILLSVILLE*    CLOUDY    56  56 100 CALM      29.78R
RICHLANDS*     CLOUDY    62  55  80 CALM      29.80R
WISE*          CLOUDY    63  54  72 W3        29.81S
ABINGDON*      CLOUDY    64  58  80 W3        29.79R
$$

MDZ021>025-VAZ099-100-260200-
SOUTHERN MARYLAND AND THE DELMARVA PENINSULA

CITY           SKY/WX    TMP DP  RH WIND       PRES   REMARKS
PATUXENT RIVER CLOUDY    60  60 100 N12       29.68R
BAY BRIDGE APT RAIN      57  55  94 N6        29.73R FOG
LEONARDTOWN    CLOUDY    59  57  94 N3        29.70S
DOVER          LGT RAIN  57  57 100 N15       29.71S
GEORGETOWN     FOG       59  58  96 NE9       29.68F VSB 1
EASTON         CLOUDY    59  57  94 NE15G22   29.74R
CAMBRIDGE      CLOUDY    59  59 100 NE9       29.69R FOG
SALISBURY      CLOUDY    63  63 100 NE8       29.66R
OCEAN CITY     CLOUDY    59  59 100 NE7       29.66R FOG
WALLOPS ISLAND CLOUDY    62  62 100 E12G22    29.64S
ACCOMACK*      DRIZZLE   62  60  93 E7        29.62R
$$

NCZ012>017-030>032-260200-
NORTH CENTRAL AND EASTERN NORTH CAROLINA

CITY           SKY/WX    TMP DP  RH WIND       PRES   REMARKS
ROANOKE RAPIDS CLOUDY    64  63  94 N3        29.66S
RALEIGH        DRIZZLE   62  60  93 N6        29.71R
ELIZABETH CITY LGT RAIN  65  64  97 S8        29.64S
AHOSKIE*         N/A     61  60  96 CALM      29.65F
EDENTON*       CLOUDY    68  61  78 SW8       29.65F
CURRITUCK*     CLOUDY    67  67 100 CALM      29.64S
KILL DEVIL HLS CLOUDY    64  64 100 CALM      29.64S
MANTEO         CLOUDY    67  61  82 SW8       29.66R
CAPE HATTERAS  PTCLDY    67  60  78 W8        29.66R HAZE
TARBORO*       NOT AVBL
GOLDSBORO      CLEAR     66  64  94 W8        29.68R
WASHINGTON     CLOUDY    64  63  97 CALM      29.66R
GREENVILLE     CLOUDY    64  64 100 CALM      29.71R
NEW BERN       CLEAR     62  62 100 CALM      29.68R
WILMINGTON     CLOUDY    64  61  90 W8        29.71R
$$

VAZ048-260200-
ELSEWHERE

CITY           SKY/WX    TMP DP  RH WIND       PRES   REMARKS
HARRISBURG PA  LGT RAIN  56  55  97 NE8       29.79F FOG
BALTIMORE      DRIZZLE   57  57 100 NE12      29.74R FOG
ANNAPOLIS      LGT RAIN  59  57  93 NE9       29.73R
ANDREWS AFB    DRIZZLE   57  55  94 NE8       29.72R
PHILADELPHIA   CLOUDY    56  54  93 NE16G26   29.79S FOG
HENDERSON NC   MOCLDY    59  56  91 N7        29.70R
GREENSBORO     CLOUDY    60  58  92 N5        29.74R
ROCKY MOUNT    PTCLDY    65  59  81 W9        29.68R
$$

VAZ100-260200-
MARINE

STATION/POSITION TIME  TEMP    WIND        PRES    WAVE   SWELL
                       AIR SEA DIR/SP/G            HT/PER HT/PER
                 (UTC) (F)     (DEG/KT/KT) (MB)    (FT/S) (FT/S)
CAPE MAY NJ      0030   60 55   60/  9/ 14 1005.2R
LEWES DE         0048   56 55   50/  6/  7 1005.1F
15NM E FENWICK I 2350   55 51   90/ 14/ 16 1004.5    9/11   8/11
OCEAN-CITY-INLET 0036   58 53  100/  5/  9 1004.5R
WACHAPREAGUE VA  0042   59 59   30/  8/  9 1002.3S
THOMAS POINT MD  0000   57 57   10/ 15/ 16   N/A
GOOSES REEF MD   0050   58     360/ 14/ 16 1006.1R
COVE POINT MD    0030   58     350/ 11/ 14 1005.7S
SOLOMONS ISLAND  0030   60 60  350/  8/ 11   N/A
BISHOPS HEAD MD  0030   60 61   20/  8/ 15 1004.9R
PINEY POINT MD   0030           10/  9/ 11   N/A
POTOMAC MD       0050   61      10/ 14/ 16 1003.6R
CAMBRIDGE MD     0030   60 61                N/A
LEWISETTA VA     0042   61 61  350/  6/  9 1004.2S
RAPPAHANNOCK LGT 0030          360/ 15/ 17 1003.3F
STINGRAY PT      0050   61      20/ 16/ 17 1002.0S
YORK RVR RNG VA  0042   63     290/  8/  9 1002.8R
YORKTOWN VA      0042   63 63  330/ 10/ 11 1003.5R
JAMESTOWN VA     0050   65     350/  4/  6   N/A
DOMINION TERM VA 0030   65     360/  6/  9 1003.7R
KIPTOPEKE VA     0036      60  310/  9/ 12   N/A
CHES BAY BRIDGE  0042   63 62  300/  7/  8 1003.4R
CAPE HENRY VA    0042   62     280/  7/ 10   N/A
WILLOUBY STN VA  0030   63     330/  8/  8 1004.5S
S CRANEY ISL VA  0030   64     360/  4/  5 1003.1F
CAPE HENRY BUOY  0042      55                N/A     6/11   3/11
1ST LANDING BUOY 0050   63                 1003.6R
CAPE CHARLES BUO 0051      56                N/A     6/11   3/11
64NM E OF VA BCH 2350   59 55  190/ 10/ 12 1003.3   10/11  10/11
DUCK PIER NC     0030   61 60  140/  5/  6 1003.4R
44100 DUCK FRF   0035      56                N/A     7/11   3/11
44056 DUCK FRF   0030      60                N/A     7/11   3/11
OREGON INLET NC  0030   62 65  130/  2/  3 1004.1R
HATTERAS NC      0042   66 68  230/  7/ 14 1003.9R
DIAMOND SHLS NC  0050   71 78  230/ 17/ 21 1004.0R   8/10   5/10
CAPE LOOKOUT NC  0000   68     240/ 13/ 18 1003.8R
$$




USA.gov is the U.S. government's official web portal to all federal, state and local government web resources and services.